Temperature
14 14 15 15 16 16 16 16 16 17 16 16 16 16 17 17 17 17 17 17 16 16 15 15 14 14 14 13 13 12 12 12 11 11 11 10 11 11 11 11 10 10 10
13 12 14 14 15 15 15 16 16 16 16 16 16 16 16 16 17 17 17 17 17 16 16 15 15 14 14 13 13 12 12 12 11 11 10 10 10 11 11 11 10 10 10
11 11 12 13 14 14 15 15 15 15 16 15 15 15 15 15 15 16 16 17 17 16 16 15 15 14 14 14 13 13 12 12 12 11 10 10 10 10 11 11 11 10 10
10 10 11 11 12 13 14 14 14 15 15 15 15 15 14 14 15 15 15 16 16 16 15 15 14 14 14 13 13 13 13 12 11 11 11 11 11 11 11 11 11 10 9
10 10 10 11 12 12 13 13 14 14 14 14 14 14 14 14 14 14 14 14 14 15 15 14 14 13 13 13 13 13 12 12 11 12 11 11 10 10 10 10 10 10 9
9 9 10 11 11 12 12 13 13 13 13 14 14 14 14 13 13 13 13 14 14 14 14 14 13 13 13 13 13 12 12 12 11 11 11 11 10 10 10 9 9 9 9
9 9 10 10 11 11 12 12 12 12 13 13 13 13 13 13 13 13 13 13 13 13 13 13 13 13 12 12 12 12 12 11 11 11 11 11 10 10 10 9 8 8 7
9 8 9 9 10 10 10 11 11 11 12 12 12 12 12 12 12 12 12 12 12 12 13 13 12 12 12 11 11 11 11 11 11 10 10 10 10 9 9 8 7 6 5
8 8 8 8 9 9 9 9 10 10 10 11 11 11 11 12 12 12 12 12 12 12 12 12 12 11 11 10 10 10 10 10 10 10 9 9 9 8 8 7 6 5 5
7 7 7 7 7 8 8 8 8 9 9 9 10 10 10 11 11 11 11 11 11 11 11 11 11 10 10 10 9 9 9 9 9 9 8 8 7 7 6 5 5 4 4
7 6 6 6 6 6 7 7 7 8 8 8 9 9 9 9 10 10 10 10 10 10 10 10 10 10 9 9 9 9 9 9 8 8 7 7 6 5 4 4 3 3 3
6 5 5 5 5 6 6 6 6 7 7 7 7 8 8 8 8 8 9 9 9 9 9 9 9 8 8 8 8 8 8 7 7 6 6 5 4 3 3 2 2 2 1
5 4 4 4 4 5 5 5 6 6 6 6 6 7 7 7 7 7 7 7 7 7 7 7 7 7 7 7 7 6 6 5 5 4 3 3 2 2 2 1 1 1 0
4 4 3 3 4 4 4 4 5 5 5 5 5 5 5 5 5 5 6 6 6 6 6 6 6 6 5 5 5 4 4 3 3 2 2 1 1 1 1 0 -0 -1 -1
3 3 3 3 3 3 3 3 4 4 4 4 4 4 4 4 4 4 4 4 4 4 4 4 4 4 3 3 3 3 2 2 1 1 1 0 0 -0 -0 -1 -1 -2 -3
3 2 2 2 2 2 2 2 3 3 3 3 3 3 3 3 2 3 3 2 2 2 2 2 1 1 1 1 1 1 1 1 0 0 -0 -1 -1 -1 -1 -2 -2 -3 -4
2 2 1 1 1 1 1 2 2 2 2 2 2 2 2 1 1 1 1 1 0 0 0 0 -0 -0 -0 -1 -0 -0 -0 -1 -1 -1 -1 -2 -2 -2 -3 -3 -3 -4 -4
2 1 1 1 1 1 1 1 1 1 1 1 1 1 1 0 0 0 0 -0 -1 -1 -1 -1 -1 -1 -1 -1 -1 -1 -1 -2 -2 -2 -3 -3 -3 -3 -3 -4 -4 -5 -5
2 1 1 0 0 0 0 0 0 0 0 0 -0 -0 -0 -0 -0 -0 -1 -1 -1 -1 -1 -1 -1 -2 -2 -2 -2 -2 -2 -3 -3 -3 -3 -4 -4 -4 -5 -5 -5 -6 -6
1 1 0 0 -0 -0 -0 -0 -0 -0 -0 -1 -1 -1 -1 -1 -1 -1 -1 -1 -1 -1 -1 -2 -2 -2 -3 -3 -3 -3 -3 -4 -4 -4 -4 -4 -5 -5 -6 -6 -6 -7 -7
1 1 0 -0 -0 -0 -1 -1 -1 -1 -1 -1 -1 -1 -1 -1 -1 -1 -1 -1 -1 -1 -2 -2 -2 -3 -3 -4 -4 -4 -4 -5 -5 -5 -6 -6 -6 -6 -7 -7 -7 -7 -7
1 1 0 -0 -0 -1 -1 -1 -1 -1 -1 -1 -1 -1 -1 -1 -1 -1 -1 -1 -2 -2 -2 -3 -3 -4 -4 -4 -5 -5 -5 -6 -6 -6 -7 -7 -6 -7 -7 -7 -7 -7 -7
1 1 0 -0 -0 -1 -1 -1 -1 -1 -1 -1 -1 -1 -1 -1 -1 -1 -1 -2 -2 -2 -3 -4 -4 -4 -5 -5 -5 -6 -6 -6 -7 -7 -7 -7 -7 -7 -7 -7 -7 -7 -7
1 1 0 0 -0 -0 -1 -0 -0 -1 -1 -1 -1 -1 -1 -1 -1 -2 -2 -2 -3 -3 -4 -4 -5 -5 -6 -6 -6 -7 -7 -7 -7 -7 -7 -7 -7 -7 -7 -7 -7 -7 -7
2 1 1 0 0 0 -0 -0 -0 -1 -1 -1 -1 -1 -1 -1 -2 -2 -2 -3 -3 -3 -4 -5 -5 -6 -6 -7 -7 -7 -8 -8 -8 -7 -7 -7 -7 -7 -7 -7 -7 -7 -7
2 1 1 1 0 0 -0 -0 -0 -1 -1 -1 -1 -1 -1 -2 -2 -2 -3 -3 -3 -4 -4 -5 -5 -6 -6 -7 -7 -7 -8 -7 -7 -7 -8 -8 -8 -8 -7 -7 -7 -8 -8
Wind_Speed
8 7 7 7 7 8 10 11 12 13 12 11 11 12 13 13 12 13 17 18 18 19 18 13 15 14 14 15 15 13 12 10 8 6 5 6 7 8 8 9 10 11 12
3 3 3 3 4 5 7 9 10 11 12 11 11 11 12 11 13 12 15 19 19 20 17 17 15 15 14 16 17 15 11 9 10 8 5 5 7 8 10 9 9 11 12
3 4 4 4 3 3 4 5 7 8 9 11 10 9 10 10 10 12 14 16 19 20 18 18 16 15 15 15 18 18 17 13 12 11 8 6 9 5 7 10 10 10 9
6 6 6 7 6 6 5 4 4 5 5 7 9 13 12 13 15 13 13 14 16 18 19 18 17 16 15 16 17 18 17 16 12 10 10 7 4 5 5 6 8 9 10
7 8 8 7 7 7 6 5 5 4 4 4 6 10 13 13 12 12 14 14 14 15 16 16 15 16 15 17 17 17 18 16 15 11 8 8 4 4 5 4 5 6 6
7 7 8 7 8 8 7 7 6 6 5 4 4 7 10 12 13 14 14 13 11 11 15 14 15 15 15 16 16 16 18 16 15 12 9 8 6 7 7 5 3 4 3
7 8 9 9 9 10 10 9 8 8 7 6 5 6 8 10 12 13 13 13 11 11 12 12 14 13 14 14 13 13 14 15 15 13 10 8 6 3 4 4 3 3 2
7 8 9 9 9 10 10 10 10 9 9 8 7 7 7 7 8 10 11 11 10 11 11 11 12 12 11 10 10 9 10 10 11 10 9 6 4 4 4 5 5 4 2
6 7 8 8 9 9 10 10 10 10 10 10 9 8 7 7 8 9 9 9 9 8 9 9 9 9 9 9 9 7 8 8 8 7 7 6 4 4 4 4 4 5 5
5 6 7 8 8 9 9 9 10 10 10 10 9 7 8 8 7 7 7 6 7 6 6 6 6 6 6 7 7 7 8 9 8 7 9 8 6 5 5 5 4 3 3
5 5 6 7 7 8 8 9 9 10 10 10 9 9 8 7 7 5 5 4 3 3 2 2 3 4 6 7 8 9 10 11 10 9 10 10 9 7 6 5 4 4 3
3 4 5 6 7 8 9 9 9 9 10 9 9 8 8 7 7 6 6 4 3 3 2 3 5 7 7 8 10 11 11 12 12 11 11 10 8 8 6 5 4 3 2
3 4 5 6 7 8 8 9 9 9 9 9 8 9 9 9 8 8 8 8 7 8 8 8 8 9 9 10 10 11 11 11 11 11 11 10 9 7 5 4 4 3 2
3 4 5 6 6 7 7 8 8 9 8 9 9 10 10 10 10 10 10 10 10 10 10 11 11 11 11 11 12 12 13 12 11 10 9 8 7 6 5 4 3 3 3
3 4 4 5 6 6 7 8 8 8 8 9 10 10 10 11 11 12 12 12 12 12 12 12 12 12 11 11 12 12 12 12 11 10 8 7 7 5 3 2 2 3 3
1 2 3 4 5 6 6 7 7 8 8 10 10 9 10 11 11 12 12 13 13 13 13 13 13 12 11 17 17 14 11 10 10 9 7 6 5 4 2 0 2 3 4
1 1 2 3 4 5 5 6 7 7 8 9 9 9 10 11 11 11 12 12 12 12 13 13 13 13 15 18 17 16 10 9 8 7 5 4 3 2 0 1 2 3 4
2 2 1 2 3 4 5 6 7 7 8 9 9 9 9 10 10 11 11 11 10 10 10 11 11 11 13 16 16 14 9 8 7 5 3 2 1 1 3 3 3 4 5
3 2 2 3 3 4 5 6 7 7 8 8 8 8 8 9 9 10 10 9 9 10 9 9 10 10 10 12 12 9 6 5 5 3 2 2 2 3 5 5 5 6 6
4 3 3 4 4 4 4 6 7 7 7 7 7 8 8 9 9 9 9 8 8 9 9 9 9 8 8 9 9 6 3 3 2 2 2 3 4 6 6 5 6 7 7
5 4 4 4 4 4 5 6 7 7 6 6 7 8 8 8 8 8 8 8 8 8 8 8 7 7 7 7 7 5 3 2 2 2 3 3 6 7 8 7 6 8 9
6 5 5 4 4 4 6 7 6 5 6 7 7 7 7 7 7 8 7 7 7 7 6 6 6 5 5 6 6 6 5 4 3 3 3 4 8 9 8 7 7 9 9
7 6 6 6 4 4 5 7 5 6 7 7 7 7 7 7 6 6 6 5 5 4 4 3 3 3 3 3 5 5 5 6 4 3 5 7 8 8 6 6 8 7 5
8 7 8 7 6 5 5 6 6 6 7 7 7 6 6 6 6 5 4 4 4 3 3 2 2 2 2 2 3 3 3 4 4 4 5 6 6 5 6 5 4 4 4
8 8 8 8 7 7 6 6 7 7 7 7 6 6 5 5 5 5 4 4 4 3 2 2 1 1 2 3 6 5 4 5 5 6 4 4 4 4 4 4 4 4 4
9 9 9 8 8 8 7 6 6 7 7 6 6 4 4 4 4 4 4 5 4 4 3 2 2 2 3 5 6 6 7 7 7 5 4 5 5 5 5 5 5 5 5
Wind_Direction
281 291 288 276 262 252 247 244 241 238 234 229 224 222 225 228 228 229 231 229 226 222 219 221 220 215 214 212 210 205 204 203 187 183 202 215 221 220 213 211 206 201 198
299 325 325 306 279 266 261 255 249 246 241 235 232 231 232 233 232 230 232 230 228 224 220 220 219 215 216 215 211 204 204 197 189 194 197 216 215 221 217 211 212 208 199
33 27 27 25 15 349 316 291 275 264 255 250 244 239 237 238 236 233 232 231 229 227 223 223 222 218 215 216 212 206 205 202 199 204 199 205 223 196 195 212 211 209 205
51 45 39 35 27 14 360 340 314 290 274 256 244 238 235 236 237 237 238 237 233 230 228 226 225 222 218 219 215 211 213 210 202 207 224 236 243 194 184 194 209 211 211
44 41 36 30 26 17 7 359 352 342 320 278 252 247 245 248 251 250 249 246 241 234 230 228 227 226 222 222 219 213 214 214 209 200 199 212 227 233 210 191 182 198 211
36 34 29 24 22 17 10 2 355 351 344 324 287 258 256 255 255 253 251 250 247 240 235 230 229 229 226 225 222 216 214 215 216 206 197 192 193 203 208 209 179 178 172
25 21 17 12 8 5 2 357 352 345 343 333 315 292 274 267 261 259 256 254 251 245 239 232 233 232 229 226 221 217 214 213 212 208 205 206 201 169 182 178 151 145 140
18 15 10 3 359 357 355 352 347 341 339 334 324 309 294 278 270 266 264 261 258 255 251 240 236 234 229 221 213 210 208 206 206 204 194 184 172 155 154 156 149 148 160
9 6 3 360 356 354 352 348 343 339 338 333 325 317 311 297 285 278 272 268 264 264 256 246 236 228 218 208 197 196 189 181 182 174 161 148 134 125 122 126 144 156 176
4 2 0 359 357 354 351 350 348 342 338 336 332 324 320 315 306 294 286 281 277 269 256 245 229 210 192 181 171 160 155 153 149 144 139 128 121 109 102 102 93 97 143
357 358 359 0 358 358 357 357 355 352 350 348 343 341 339 337 332 324 320 314 306 294 261 217 182 161 151 148 144 142 141 137 132 132 130 123 121 114 103 97 96 90 97
0 0 2 3 4 5 4 3 2 1 358 355 357 359 1 5 7 8 9 16 31 44 67 104 116 118 122 127 131 131 132 131 129 127 122 119 115 107 106 110 111 111 117
6 9 12 11 10 8 7 7 9 7 6 10 17 22 24 26 30 33 37 47 58 66 73 84 93 99 104 108 112 115 115 113 115 117 118 119 119 117 117 118 122 131 158
9 14 15 14 14 12 12 14 17 17 19 28 36 39 39 41 44 48 53 58 64 70 74 78 83 88 92 96 100 102 103 101 99 98 101 105 112 120 128 133 146 166 198
13 20 17 16 17 18 21 23 26 28 35 44 47 46 48 53 56 59 61 63 66 70 74 79 81 83 86 91 95 96 98 98 95 89 88 92 102 117 130 148 179 204 226
19 29 26 24 23 25 27 31 35 38 46 53 53 53 56 59 61 63 66 68 69 71 74 76 77 77 83 93 94 96 93 94 96 96 93 95 92 95 93 150 242 246 254
104 55 38 37 35 35 37 43 45 50 57 61 60 60 64 66 67 68 70 71 72 74 77 78 80 82 86 89 90 90 90 90 91 94 98 99 92 75 316 283 280 279 282
147 119 86 71 60 58 59 61 62 64 67 67 66 67 69 71 71 72 72 73 74 75 75 77 82 86 89 90 90 90 89 92 93 92 89 81 54 360 311 296 292 286 279
138 126 112 98 84 75 75 77 74 72 72 69 67 70 75 79 77 76 74 75 78 76 75 75 77 82 87 91 93 91 92 92 89 78 54 13 340 325 306 298 295 294 290
137 132 124 109 97 89 92 90 81 77 73 71 72 76 79 83 82 80 79 78 80 81 80 76 74 80 86 89 90 79 74 73 63 41 14 356 329 322 319 309 298 296 303
141 136 128 116 106 108 106 95 86 80 81 84 84 82 81 84 86 85 83 86 88 88 85 83 77 74 73 79 74 60 40 30 8 348 342 344 331 325 323 313 298 298 302
150 145 135 123 115 116 115 106 96 97 96 92 86 83 83 86 90 91 89 90 94 94 91 89 81 70 63 54 51 39 29 11 349 338 334 332 329 324 319 311 304 302 301
157 152 145 135 125 123 126 120 118 119 110 101 94 91 90 87 91 95 97 94 90 91 90 87 82 70 52 44 32 18 10 0 341 332 332 327 325 318 307 303 307 304 293
164 159 157 151 141 133 128 127 132 131 122 115 109 106 101 96 92 89 88 90 89 92 91 84 77 60 23 6 354 345 341 336 328 318 315 313 310 302 301 305 299 293 294
168 168 168 159 151 145 141 142 145 143 134 126 120 114 107 106 99 90 80 82 77 60 65 66 39 354 350 354 344 338 334 333 331 322 310 313 318 319 318 310 304 300 292
171 172 171 165 159 157 153 155 158 156 146 139 136 130 126 121 118 115 104 74 70 77 66 44 350 321 324 333 333 331 331 329 330 317 309 316 320 320 319 315 312 307 301
Height
1502 1501 1501 1501 1502 1504 1505 1507 1508 1510 1512 1512 1513 1513 1514 1515 1516 1517 1519 1520 1521 1521 1522 1523 1525 1525 1526 1527 1529 1531 1533 1534 1536 1538 1538 1538 1539 1539 1539 1540 1540 1540 1540
1498 1497 1496 1496 1497 1498 1499 1500 1502 1504 1505 1506 1507 1507 1509 1509 1510 1511 1512 1513 1514 1515 1516 1517 1518 1518 1520 1521 1523 1524 1526 1527 1529 1532 1533 1534 1534 1532 1533 1533 1534 1535 1535
1496 1495 1493 1493 1493 1493 1494 1495 1496 1497 1498 1499 1500 1501 1502 1502 1503 1504 1504 1506 1507 1507 1508 1509 1510 1511 1512 1513 1515 1517 1518 1520 1522 1525 1527 1527 1527 1526 1526 1526 1527 1528 1529
1495 1493 1492 1491 1490 1490 1490 1491 1491 1492 1492 1493 1494 1494 1495 1495 1496 1497 1498 1499 1499 1500 1500 1501 1503 1504 1505 1506 1507 1509 1511 1513 1514 1516 1518 1520 1520 1521 1520 1520 1521 1522 1522
1494 1493 1491 1490 1489 1489 1488 1488 1488 1488 1488 1488 1488 1489 1489 1490 1491 1491 1491 1492 1492 1492 1493 1494 1495 1496 1497 1498 1500 1501 1503 1504 1506 1507 1509 1511 1512 1513 1515 1514 1514 1515 1516
1494 1493 1491 1490 1489 1488 1487 1486 1485 1485 1484 1484 1483 1483 1483 1484 1484 1484 1484 1484 1484 1485 1485 1486 1487 1488 1489 1490 1491 1493 1494 1496 1498 1499 1500 1502 1503 1504 1507 1508 1507 1508 1509
1494 1492 1490 1488 1487 1485 1484 1483 1482 1482 1481 1480 1479 1478 1478 1478 1477 1478 1477 1477 1477 1477 1478 1478 1479 1480 1481 1482 1483 1485 1486 1488 1490 1491 1492 1494 1496 1497 1499 1500 1501 1501 1502
1492 1490 1488 1486 1485 1483 1481 1480 1479 1478 1477 1476 1474 1474 1473 1472 1471 1471 1471 1470 1470 1470 1470 1471 1471 1472 1473 1474 1475 1476 1478 1480 1482 1483 1485 1486 1488 1489 1490 1492 1494 1495 1496
1491 1489 1487 1484 1483 1481 1479 1477 1475 1474 1472 1471 1470 1469 1467 1466 1466 1465 1464 1463 1463 1463 1463 1464 1464 1464 1465 1466 1467 1469 1471 1472 1474 1476 1477 1479 1480 1482 1483 1485 1487 1490 1490
1489 1487 1485 1482 1480 1478 1476 1474 1472 1470 1468 1466 1464 1463 1462 1461 1460 1459 1458 1457 1457 1457 1457 1457 1457 1457 1458 1459 1460 1462 1464 1466 1467 1469 1470 1472 1474 1476 1477 1479 1481 1483 1485
1487 1485 1483 1480 1478 1476 1473 1471 1468 1466 1464 1462 1460 1458 1457 1456 1455 1454 1453 1452 1451 1451 1450 1450 1451 1451 1452 1453 1454 1456 1457 1459 1461 1463 1465 1466 1469 1471 1472 1474 1477 1479 1480
1485 1483 1480 1478 1476 1473 1471 1468 1466 1463 1461 1458 1456 1454 1453 1452 1450 1449 1448 1447 1447 1446 1445 1445 1445 1446 1447 1448 1449 1451 1452 1454 1456 1458 1460 1462 1465 1467 1469 1472 1473 1475 1476
1482 1480 1478 1476 1473 1471 1469 1466 1464 1461 1459 1456 1454 1452 1450 1449 1447 1446 1445 1444 1443 1443 1442 1442 1442 1443 1443 1444 1446 1447 1449 1451 1453 1455 1458 1461 1463 1466 1467 1469 1470 1471 1472
1479 1478 1476 1474 1472 1469 1467 1465 1462 1460 1457 1455 1453 1451 1449 1448 1446 1445 1444 1443 1442 1441 1441 1441 1441 1441 1442 1443 1445 1446 1448 1450 1453 1455 1458 1460 1462 1464 1465 1466 1467 1468 1468
1477 1475 1474 1472 1470 1468 1466 1464 1461 1459 1457 1455 1453 1451 1449 1448 1446 1445 1444 1443 1442 1442 1441 1441 1442 1442 1443 1444 1446 1447 1449 1451 1453 1456 1458 1460 1461 1462 1463 1464 1464 1464 1464
1474 1473 1471 1470 1469 1467 1465 1463 1461 1459 1457 1455 1453 1452 1450 1449 1447 1446 1445 1445 1444 1444 1444 1444 1444 1445 1446 1447 1449 1450 1452 1453 1455 1456 1458 1459 1460 1460 1460 1461 1461 1461 1461
1472 1471 1470 1469 1468 1466 1465 1463 1461 1459 1458 1456 1455 1453 1452 1451 1450 1449 1448 1448 1448 1448 1448 1448 1448 1449 1450 1451 1452 1453 1455 1455 1456 1457 1457 1457 1458 1458 1458 1458 1457 1457 1456
1469 1469 1468 1467 1467 1465 1464 1463 1461 1460 1459 1457 1456 1455 1454 1453 1453 1452 1452 1452 1452 1452 1452 1452 1453 1453 1454 1454 1455 1456 1456 1456 1456 1456 1456 1456 1456 1456 1456 1455 1454 1454 1453
1467 1467 1467 1466 1466 1465 1464 1463 1462 1461 1460 1460 1459 1458 1457 1457 1456 1456 1456 1456 1456 1456 1456 1456 1457 1457 1457 1457 1457 1458 1457 1457 1456 1456 1456 1455 1455 1454 1453 1452 1451 1451 1450
1465 1465 1465 1465 1465 1465 1464 1464 1463 1463 1462 1462 1461 1461 1460 1460 1460 1460 1460 1460 1460 1460 1460 1460 1460 1460 1459 1459 1459 1458 1458 1457 1456 1456 1455 1453 1453 1451 1450 1450 1449 1448 1447
1464 1464 1464 1465 1465 1465 1465 1465 1464 1464 1464 1464 1464 1464 1464 1463 1463 1463 1463 1463 1463 1463 1463 1462 1462 1461 1461 1460 1459 1458 1458 1457 1456 1454 1453 1452 1450 1449 1448 1447 1446 1445 1444
1463 1463 1464 1464 1465 1465 1465 1466 1466 1466 1466 1467 1467 1466 1466 1466 1466 1466 1466 1466 1465 1465 1464 1464 1463 1463 1462 1461 1459 1458 1457 1456 1454 1453 1452 1450 1449 1447 1446 1445 1444 1442 1441
1462 1463 1463 1464 1465 1466 1466 1467 1468 1468 1468 1469 1469 1469 1469 1469 1468 1468 1468 1467 1467 1466 1466 1465 1464 1463 1462 1460 1459 1458 1456 1454 1453 1452 1450 1448 1447 1445 1444 1443 1441 1440 1438
1461 1462 1463 1464 1465 1466 1467 1468 1469 1469 1470 1470 1471 1471 1471 1470 1470 1470 1469 1468 1468 1467 1466 1465 1464 1463 1461 1460 1458 1457 1455 1453 1452 1450 1448 1447 1445 1444 1442 1440 1439 1437 1436
1459 1461 1462 1464 1465 1466 1468 1469 1469 1470 1471 1471 1472 1472 1472 1471 1471 1470 1469 1469 1468 1467 1466 1465 1463 1462 1461 1459 1457 1456 1454 1452 1450 1449 1447 1445 1444 1442 1440 1439 1437 1435 1433
1458 1460 1461 1463 1465 1466 1468 1469 1470 1471 1472 1472 1472 1472 1472 1472 1471 1470 1469 1468 1468 1466 1465 1463 1462 1460 1459 1457 1456 1454 1452 1450 1449 1447 1445 1444 1442 1440 1438 1436 1434 1432 1430